Time,TemperatureF,DewpointF,PressureIn,WindDirection,WindDirectionDegrees,WindSpeedMPH,WindSpeedGustMPH,Humidity,HourlyPrecipIn,Conditions,Clouds,dailyrainin,SoftwareType,DateUTC
2013-07-14 00:01:00,72.3,42.4,0.00,SSW,195,2.2,2.2,34,0.00,,,0.00,VWS V13.01,2013-07-14 05:01:00,
2013-07-14 00:06:00,72.3,42.4,0.00,South,190,3.1,3.1,34,0.00,,,0.00,VWS V13.01,2013-07-14 05:06:00,
2013-07-14 00:11:00,72.3,42.4,0.00,South,179,3.1,3.1,34,0.00,,,0.00,VWS V13.01,2013-07-14 05:11:00,
2013-07-14 00:16:00,72.3,42.4,0.00,South,182,3.1,3.1,34,0.00,,,0.00,VWS V13.01,2013-07-14 05:16:00,
2013-07-14 00:21:00,72.3,42.4,0.00,South,173,4.0,4.0,34,0.00,,,0.00,VWS V13.01,2013-07-14 05:21:00,
2013-07-14 00:26:00,72.3,42.4,0.00,South,178,4.0,4.0,34,0.00,,,0.00,VWS V13.01,2013-07-14 05:26:00,
2013-07-14 00:31:00,72.1,43.0,0.00,South,174,3.6,3.6,35,0.00,,,0.00,VWS V13.01,2013-07-14 05:31:00,
2013-07-14 00:36:00,72.1,43.0,0.00,South,188,2.7,2.7,35,0.00,,,0.00,VWS V13.01,2013-07-14 05:36:00,
2013-07-14 00:41:00,72.1,43.0,0.00,South,171,4.9,4.9,35,0.00,,,0.00,VWS V13.01,2013-07-14 05:41:00,
2013-07-14 00:46:00,72.0,42.8,0.00,SSE,165,3.6,3.6,35,0.00,,,0.00,VWS V13.01,2013-07-14 05:46:00,
2013-07-14 00:51:00,72.0,42.8,0.00,SSE,159,3.6,3.6,35,0.00,,,0.00,VWS V13.01,2013-07-14 05:51:00,
2013-07-14 00:56:00,71.8,42.7,0.00,South,169,3.1,3.6,35,0.00,,,0.00,VWS V13.01,2013-07-14 05:56:00,
2013-07-14 01:01:00,71.8,43.4,0.00,SSE,165,2.7,4.0,36,0.00,,,0.00,VWS V13.01,2013-07-14 06:01:00,
2013-07-14 01:06:00,71.6,42.5,0.00,SSE,163,4.0,4.0,35,0.00,,,0.00,VWS V13.01,2013-07-14 06:06:00,
2013-07-14 01:11:00,71.6,43.3,0.00,SSE,167,2.7,3.6,36,0.00,,,0.00,VWS V13.01,2013-07-14 06:11:00,
2013-07-14 01:16:00,71.6,43.3,0.00,SSE,160,3.1,4.0,36,0.00,,,0.00,VWS V13.01,2013-07-14 06:16:00,
2013-07-14 01:21:00,71.6,43.3,0.00,South,173,0.0,0.0,36,0.00,,,0.00,VWS V13.01,2013-07-14 06:21:00,
2013-07-14 01:26:00,71.4,43.8,0.00,South,173,0.0,0.0,37,0.00,,,0.00,VWS V13.01,2013-07-14 06:26:00,
2013-07-14 01:31:00,71.1,43.5,0.00,South,173,0.0,0.0,37,0.00,,,0.00,VWS V13.01,2013-07-14 06:31:00,
2013-07-14 01:36:00,70.5,43.0,0.00,South,173,0.0,0.0,37,0.00,,,0.00,VWS V13.01,2013-07-14 06:36:00,
2013-07-14 01:41:00,70.2,43.4,0.00,South,173,2.7,2.7,38,0.00,,,0.00,VWS V13.01,2013-07-14 06:41:00,
2013-07-14 01:46:00,70.3,44.9,0.00,SSE,160,4.0,4.0,40,0.00,,,0.00,VWS V13.01,2013-07-14 06:46:00,
2013-07-14 01:51:00,70.7,44.5,0.00,SSE,160,3.1,4.0,39,0.00,,,0.00,VWS V13.01,2013-07-14 06:51:00,
2013-07-14 01:56:00,71.1,45.5,0.00,South,173,2.7,3.1,40,0.00,,,0.00,VWS V13.01,2013-07-14 06:56:00,
2013-07-14 02:01:00,71.1,44.9,0.00,SSE,149,2.7,3.6,39,0.00,,,0.00,VWS V13.01,2013-07-14 07:01:00,
2013-07-14 02:06:00,71.1,45.5,0.00,South,175,0.0,2.7,40,0.00,,,0.00,VWS V13.01,2013-07-14 07:06:00,
2013-07-14 02:11:00,71.1,44.9,0.00,SSE,162,2.7,2.7,39,0.00,,,0.00,VWS V13.01,2013-07-14 07:11:00,
2013-07-14 02:16:00,71.1,44.9,0.00,South,170,4.0,4.0,39,0.00,,,0.00,VWS V13.01,2013-07-14 07:16:00,
2013-07-14 02:21:00,71.1,46.2,0.00,SSE,166,2.7,3.6,41,0.00,,,0.00,VWS V13.01,2013-07-14 07:21:00,
2013-07-14 02:26:00,71.1,45.5,0.00,SSE,166,0.0,0.0,40,0.00,,,0.00,VWS V13.01,2013-07-14 07:26:00,
2013-07-14 02:31:00,70.9,45.4,0.00,SSE,166,0.0,0.0,40,0.00,,,0.00,VWS V13.01,2013-07-14 07:31:00,
2013-07-14 02:36:00,70.7,45.2,0.00,SSE,166,0.0,0.0,40,0.00,,,0.00,VWS V13.01,2013-07-14 07:36:00,
2013-07-14 02:41:00,70.5,45.1,0.00,SSE,166,0.0,0.0,40,0.00,,,0.00,VWS V13.01,2013-07-14 07:41:00,
2013-07-14 02:46:00,70.2,44.7,0.00,SSE,166,0.0,0.0,40,0.00,,,0.00,VWS V13.01,2013-07-14 07:46:00,
2013-07-14 02:51:00,70.2,45.4,0.00,SSE,166,0.0,0.0,41,0.00,,,0.00,VWS V13.01,2013-07-14 07:51:00,
2013-07-14 02:56:00,70.3,46.2,0.00,SSE,151,4.9,4.9,42,0.00,,,0.00,VWS V13.01,2013-07-14 07:56:00,
2013-07-14 03:01:00,70.5,46.3,0.00,SE,144,3.6,4.0,42,0.00,,,0.00,VWS V13.01,2013-07-14 08:01:00,
2013-07-14 03:06:00,70.5,46.3,0.00,SSE,151,4.5,4.5,42,0.00,,,0.00,VWS V13.01,2013-07-14 08:06:00,
2013-07-14 03:11:00,70.5,46.3,0.00,SSE,153,3.6,4.0,42,0.00,,,0.00,VWS V13.01,2013-07-14 08:11:00,
2013-07-14 03:16:00,70.5,46.3,0.00,SSE,150,4.0,4.9,42,0.00,,,0.00,VWS V13.01,2013-07-14 08:16:00,
2013-07-14 03:21:00,70.3,46.2,0.00,SSE,168,4.0,4.9,42,0.00,,,0.00,VWS V13.01,2013-07-14 08:21:00,
2013-07-14 03:26:00,70.2,46.0,0.00,SSE,157,4.0,4.0,42,0.00,,,0.00,VWS V13.01,2013-07-14 08:26:00,
2013-07-14 03:31:00,70.2,46.6,0.00,SSE,155,4.9,4.9,43,0.00,,,0.00,VWS V13.01,2013-07-14 08:31:00,
2013-07-14 03:36:00,70.0,45.9,0.00,SSE,150,4.0,4.0,42,0.00,,,0.00,VWS V13.01,2013-07-14 08:36:00,
2013-07-14 03:41:00,70.0,46.5,0.00,South,169,4.0,4.9,43,0.00,,,0.00,VWS V13.01,2013-07-14 08:41:00,
2013-07-14 03:46:00,70.0,46.5,0.00,SE,145,2.7,4.9,43,0.00,,,0.00,VWS V13.01,2013-07-14 08:46:00,
2013-07-14 03:51:00,69.8,46.3,0.00,SSE,159,3.6,3.6,43,0.00,,,0.00,VWS V13.01,2013-07-14 08:51:00,
2013-07-14 03:56:00,69.8,46.3,0.00,SSE,153,2.7,3.6,43,0.00,,,0.00,VWS V13.01,2013-07-14 08:56:00,
2013-07-14 04:01:00,69.6,46.8,0.00,SSE,167,4.0,4.0,44,0.00,,,0.00,VWS V13.01,2013-07-14 09:01:00,
2013-07-14 04:06:00,69.6,46.8,0.00,SE,140,4.0,4.0,44,0.00,,,0.00,VWS V13.01,2013-07-14 09:06:00,
2013-07-14 04:11:00,69.6,46.8,0.00,SSE,147,4.0,4.9,44,0.00,,,0.00,VWS V13.01,2013-07-14 09:11:00,
2013-07-14 04:16:00,69.4,47.2,0.00,SE,126,3.1,4.0,45,0.00,,,0.00,VWS V13.01,2013-07-14 09:16:00,
2013-07-14 04:21:00,69.4,47.2,0.00,SSE,153,3.6,3.6,45,0.00,,,0.00,VWS V13.01,2013-07-14 09:21:00,
2013-07-14 04:26:00,69.4,47.2,0.00,SE,138,3.6,3.6,45,0.00,,,0.00,VWS V13.01,2013-07-14 09:26:00,
2013-07-14 04:31:00,69.4,47.2,0.00,SSE,156,3.1,3.1,45,0.00,,,0.00,VWS V13.01,2013-07-14 09:31:00,
2013-07-14 04:36:00,69.4,47.8,0.00,SSE,163,2.7,2.7,46,0.00,,,0.00,VWS V13.01,2013-07-14 09:36:00,
2013-07-14 04:41:00,69.3,47.0,0.00,SSE,149,3.1,3.6,45,0.00,,,0.00,VWS V13.01,2013-07-14 09:41:00,
2013-07-14 04:46:00,69.3,47.6,0.00,SSE,154,2.7,3.1,46,0.00,,,0.00,VWS V13.01,2013-07-14 09:46:00,
2013-07-14 04:51:00,69.3,47.6,0.00,SE,146,3.6,6.3,46,0.00,,,0.00,VWS V13.01,2013-07-14 09:51:00,
2013-07-14 04:56:00,69.3,47.6,0.00,SE,141,4.9,5.4,46,0.00,,,0.00,VWS V13.01,2013-07-14 09:56:00,
2013-07-14 05:01:00,69.3,48.2,0.00,SE,143,5.4,5.8,47,0.00,,,0.00,VWS V13.01,2013-07-14 10:01:00,
2013-07-14 05:06:00,69.3,48.8,0.00,SE,135,4.9,4.9,48,0.00,,,0.00,VWS V13.01,2013-07-14 10:06:00,
2013-07-14 05:11:00,69.3,48.2,0.00,SE,137,5.8,5.8,47,0.00,,,0.00,VWS V13.01,2013-07-14 10:11:00,
2013-07-14 05:16:00,69.3,48.2,0.00,SE,135,5.8,6.7,47,0.00,,,0.00,VWS V13.01,2013-07-14 10:16:00,
2013-07-14 05:21:00,69.1,47.5,0.00,SSE,150,8.1,8.1,46,0.00,,,0.00,VWS V13.01,2013-07-14 10:21:00,
2013-07-14 05:26:00,69.1,48.0,0.00,SE,136,6.3,6.3,47,0.00,,,0.00,VWS V13.01,2013-07-14 10:26:00,
2013-07-14 05:31:00,69.1,48.0,0.00,SE,136,5.8,6.3,47,0.00,,,0.00,VWS V13.01,2013-07-14 10:31:00,
2013-07-14 05:36:00,68.9,47.9,0.00,South,174,4.9,5.4,47,0.00,,,0.00,VWS V13.01,2013-07-14 10:36:00,
2013-07-14 05:41:00,69.1,48.0,0.00,South,173,3.6,3.6,47,0.00,,,0.00,VWS V13.01,2013-07-14 10:41:00,
2013-07-14 05:46:00,69.1,47.5,0.00,SSE,162,4.0,4.9,46,0.00,,,0.00,VWS V13.01,2013-07-14 10:46:00,
2013-07-14 05:51:00,69.1,47.5,0.00,SSE,157,4.9,5.4,46,0.00,,,0.00,VWS V13.01,2013-07-14 10:51:00,
2013-07-14 05:56:00,69.1,47.5,0.00,SSE,160,3.6,6.3,46,0.00,,,0.00,VWS V13.01,2013-07-14 10:56:00,
2013-07-14 06:01:00,69.1,46.9,0.00,South,177,4.9,7.6,45,0.00,,,0.00,VWS V13.01,2013-07-14 11:01:00,
2013-07-14 06:06:00,68.9,46.7,0.00,South,186,5.4,5.4,45,0.00,,,0.00,VWS V13.01,2013-07-14 11:06:00,
2013-07-14 06:11:00,69.1,48.0,0.00,SE,136,3.6,6.3,47,0.00,,,0.00,VWS V13.01,2013-07-14 11:11:00,
2013-07-14 06:16:00,69.1,47.5,0.00,South,170,3.1,5.8,46,0.00,,,0.00,VWS V13.01,2013-07-14 11:16:00,
2013-07-14 06:21:00,68.9,47.3,0.00,South,183,4.0,6.3,46,0.00,,,0.00,VWS V13.01,2013-07-14 11:21:00,
2013-07-14 06:26:00,69.1,46.9,0.00,South,169,4.9,5.4,45,0.00,,,0.00,VWS V13.01,2013-07-14 11:26:00,
2013-07-14 06:31:00,69.1,46.9,0.00,SSE,160,4.0,4.9,45,0.00,,,0.00,VWS V13.01,2013-07-14 11:31:00,
2013-07-14 06:36:00,69.1,46.3,0.00,SSE,168,7.6,7.6,44,0.00,,,0.00,VWS V13.01,2013-07-14 11:36:00,
2013-07-14 06:41:00,69.3,47.0,0.00,SE,144,5.8,5.8,45,0.00,,,0.00,VWS V13.01,2013-07-14 11:41:00,
2013-07-14 06:46:00,69.3,47.0,0.00,SSE,168,5.8,7.6,45,0.00,,,0.00,VWS V13.01,2013-07-14 11:46:00,
2013-07-14 06:51:00,69.1,46.9,0.00,South,169,6.3,6.3,45,0.00,,,0.00,VWS V13.01,2013-07-14 11:51:00,
2013-07-14 06:56:00,69.1,46.9,0.00,SSE,168,6.3,6.3,45,0.00,,,0.00,VWS V13.01,2013-07-14 11:56:00,
2013-07-14 07:01:00,69.3,46.4,0.00,SSE,154,3.1,4.0,44,0.00,,,0.00,VWS V13.01,2013-07-14 12:01:00,
2013-07-14 07:06:00,69.3,45.2,0.00,South,174,6.3,6.3,42,0.00,,,0.00,VWS V13.01,2013-07-14 12:06:00,
2013-07-14 07:11:00,69.3,45.8,0.00,SE,128,5.4,5.8,43,0.00,,,0.00,VWS V13.01,2013-07-14 12:11:00,
2013-07-14 07:16:00,69.3,45.8,0.00,SSE,163,6.3,6.3,43,0.00,,,0.00,VWS V13.01,2013-07-14 12:16:00,
2013-07-14 07:21:00,69.3,45.8,0.00,South,171,4.0,4.9,43,0.00,,,0.00,VWS V13.01,2013-07-14 12:21:00,
2013-07-14 07:26:00,69.3,45.8,0.00,SSE,152,4.9,4.9,43,0.00,,,0.00,VWS V13.01,2013-07-14 12:26:00,
2013-07-14 07:31:00,69.3,45.8,0.00,SSE,150,3.6,4.0,43,0.00,,,0.00,VWS V13.01,2013-07-14 12:31:00,
2013-07-14 07:36:00,69.3,45.8,0.00,SSE,157,5.4,5.8,43,0.00,,,0.00,VWS V13.01,2013-07-14 12:36:00,
2013-07-14 07:41:00,69.1,46.3,0.00,SSE,168,3.6,6.3,44,0.00,,,0.00,VWS V13.01,2013-07-14 12:41:00,
2013-07-14 07:46:00,69.1,46.3,0.00,SSE,151,4.0,4.0,44,0.00,,,0.00,VWS V13.01,2013-07-14 12:46:00,
2013-07-14 07:51:00,69.1,46.3,0.00,South,187,4.0,4.9,44,0.00,,,0.00,VWS V13.01,2013-07-14 12:51:00,
2013-07-14 07:56:00,69.3,45.8,0.00,South,176,6.3,6.3,43,0.00,,,0.00,VWS V13.01,2013-07-14 12:56:00,
2013-07-14 08:01:00,69.6,46.2,0.00,South,178,3.1,4.0,43,0.00,,,0.00,VWS V13.01,2013-07-14 13:01:00,
2013-07-14 08:06:00,69.8,45.7,0.00,South,186,5.4,8.1,42,0.00,,,0.00,VWS V13.01,2013-07-14 13:06:00,
2013-07-14 08:11:00,69.8,45.1,0.00,South,174,6.3,8.3,41,0.00,,,0.00,VWS V13.01,2013-07-14 13:11:00,
2013-07-14 08:16:00,70.0,45.9,0.00,South,173,5.8,7.6,42,0.00,,,0.00,VWS V13.01,2013-07-14 13:16:00,
2013-07-14 08:21:00,70.0,45.2,0.00,SSE,147,3.6,4.0,41,0.00,,,0.00,VWS V13.01,2013-07-14 13:21:00,
2013-07-14 08:27:00,70.2,46.0,0.00,South,183,3.6,4.0,42,0.00,,,0.00,VWS V13.01,2013-07-14 13:27:00,
2013-07-14 08:32:00,70.3,44.9,0.00,SSE,166,5.8,5.8,40,0.00,,,0.00,VWS V13.01,2013-07-14 13:32:00,
2013-07-14 08:37:00,70.5,45.7,0.00,South,179,3.1,4.0,41,0.00,,,0.00,VWS V13.01,2013-07-14 13:37:00,
2013-07-14 08:42:00,70.7,45.2,0.00,South,173,5.8,5.8,40,0.00,,,0.00,VWS V13.01,2013-07-14 13:42:00,
2013-07-14 08:47:00,71.1,45.5,0.00,South,182,4.9,5.4,40,0.00,,,0.00,VWS V13.01,2013-07-14 13:47:00,
2013-07-14 08:52:00,71.6,44.7,0.00,SSE,165,3.1,4.9,38,0.00,,,0.00,VWS V13.01,2013-07-14 13:52:00,
2013-07-14 08:57:00,72.0,44.3,0.00,South,184,4.9,4.9,37,0.00,,,0.00,VWS V13.01,2013-07-14 13:57:00,
2013-07-14 09:02:00,72.1,45.8,0.00,SSE,168,5.4,7.6,39,0.00,,,0.00,VWS V13.01,2013-07-14 14:02:00,
2013-07-14 09:07:00,72.1,44.5,0.00,SSW,207,5.8,6.3,37,0.00,,,0.00,VWS V13.01,2013-07-14 14:07:00,
2013-07-14 09:12:00,72.3,44.6,0.00,SSW,193,4.0,5.8,37,0.00,,,0.00,VWS V13.01,2013-07-14 14:12:00,
2013-07-14 09:17:00,72.5,44.8,0.00,SSW,203,3.1,3.1,37,0.00,,,0.00,VWS V13.01,2013-07-14 14:17:00,
2013-07-14 09:22:00,72.7,44.9,0.00,SSW,193,5.4,5.4,37,0.00,,,0.00,VWS V13.01,2013-07-14 14:22:00,
2013-07-14 09:27:00,72.9,44.4,0.00,SSW,204,2.7,7.2,36,0.00,,,0.00,VWS V13.01,2013-07-14 14:27:00,
2013-07-14 09:32:00,73.0,44.5,0.00,SSW,196,4.0,4.0,36,0.00,,,0.00,VWS V13.01,2013-07-14 14:32:00,
2013-07-14 09:37:00,73.4,44.8,0.00,South,183,4.0,4.5,36,0.00,,,0.00,VWS V13.01,2013-07-14 14:37:00,
2013-07-14 09:42:00,74.1,44.8,0.00,SSW,204,4.9,4.9,35,0.00,,,0.00,VWS V13.01,2013-07-14 14:42:00,
2013-07-14 09:47:00,75.0,44.8,0.00,South,170,7.6,7.6,34,0.00,,,0.00,VWS V13.01,2013-07-14 14:47:00,
2013-07-14 09:52:00,75.0,44.0,0.00,South,178,7.2,8.7,33,0.00,,,0.00,VWS V13.01,2013-07-14 14:52:00,
2013-07-14 09:57:00,75.2,43.3,0.00,SE,145,6.7,6.7,32,0.00,,,0.00,VWS V13.01,2013-07-14 14:57:00,
2013-07-14 10:02:00,75.4,43.5,0.00,SE,139,5.4,5.4,32,0.00,,,0.00,VWS V13.01,2013-07-14 15:02:00,
2013-07-14 10:07:00,75.6,44.5,0.00,NNW,345,0.0,4.9,33,0.00,,,0.00,VWS V13.01,2013-07-14 15:07:00,
2013-07-14 10:12:00,75.9,44.8,0.00,SSE,168,4.0,4.0,33,0.00,,,0.00,VWS V13.01,2013-07-14 15:12:00,
2013-07-14 10:17:00,76.3,45.1,0.00,South,182,3.6,3.6,33,0.00,,,0.00,VWS V13.01,2013-07-14 15:17:00,
2013-07-14 10:22:00,76.3,44.3,0.00,South,178,8.7,8.7,32,0.00,,,0.00,VWS V13.01,2013-07-14 15:22:00,
2013-07-14 10:27:00,76.6,44.6,0.00,WNW,294,2.7,2.7,32,0.00,,,0.00,VWS V13.01,2013-07-14 15:27:00,
2013-07-14 10:32:00,76.6,44.6,0.00,SSW,210,4.5,8.3,32,0.00,,,0.00,VWS V13.01,2013-07-14 15:32:00,
2013-07-14 10:37:00,76.8,44.8,0.00,South,180,5.4,5.4,32,0.00,,,0.00,VWS V13.01,2013-07-14 15:37:00,
2013-07-14 10:42:00,76.8,44.8,0.00,SSW,193,4.0,4.0,32,0.00,,,0.00,VWS V13.01,2013-07-14 15:42:00,
2013-07-14 10:47:00,76.8,43.9,0.00,South,181,4.0,4.0,31,0.00,,,0.00,VWS V13.01,2013-07-14 15:47:00,
2013-07-14 10:52:00,77.2,44.2,0.00,SSE,154,3.1,4.0,31,0.00,,,0.00,VWS V13.01,2013-07-14 15:52:00,
2013-07-14 10:57:00,77.5,43.7,0.00,South,177,12.8,12.8,30,0.00,,,0.00,VWS V13.01,2013-07-14 15:57:00,
2013-07-14 11:02:00,77.2,43.4,0.00,SSW,197,4.0,4.0,30,0.00,,,0.00,VWS V13.01,2013-07-14 16:02:00,
2013-07-14 11:07:00,77.4,44.4,0.00,South,184,3.6,4.0,31,0.00,,,0.00,VWS V13.01,2013-07-14 16:07:00,
2013-07-14 11:12:00,77.7,43.8,0.00,SSW,208,2.7,2.7,30,0.00,,,0.00,VWS V13.01,2013-07-14 16:12:00,
2013-07-14 11:17:00,78.4,45.3,0.00,ESE,117,0.0,0.0,31,0.00,,,0.00,VWS V13.01,2013-07-14 16:17:00,
2013-07-14 11:22:00,79.0,44.9,0.00,SE,140,2.2,2.2,30,0.00,,,0.00,VWS V13.01,2013-07-14 16:22:00,
2013-07-14 11:27:00,79.0,42.2,0.00,SSE,153,2.7,2.7,27,0.00,,,0.00,VWS V13.01,2013-07-14 16:27:00,
2013-07-14 11:32:00,79.0,44.0,0.00,SSE,148,3.6,4.0,29,0.00,,,0.00,VWS V13.01,2013-07-14 16:32:00,
2013-07-14 11:37:00,79.2,45.1,0.00,SE,124,3.6,3.6,30,0.00,,,0.00,VWS V13.01,2013-07-14 16:37:00,
2013-07-14 11:42:00,79.7,42.8,0.00,South,182,0.0,0.0,27,0.00,,,0.00,VWS V13.01,2013-07-14 16:42:00,
2013-07-14 11:47:00,80.1,42.1,0.00,SSW,213,3.1,3.1,26,0.00,,,0.00,VWS V13.01,2013-07-14 16:47:00,
2013-07-14 11:52:00,79.5,42.6,0.00,South,173,6.3,6.3,27,0.00,,,0.00,VWS V13.01,2013-07-14 16:52:00,
2013-07-14 11:57:00,79.2,43.3,0.00,South,189,2.2,4.9,28,0.00,,,0.00,VWS V13.01,2013-07-14 16:57:00,
2013-07-14 12:02:00,78.6,42.8,0.00,SSE,163,9.2,9.2,28,0.00,,,0.00,VWS V13.01,2013-07-14 17:02:00,
2013-07-14 12:07:00,77.9,42.2,0.00,South,179,5.8,8.1,28,0.00,,,0.00,VWS V13.01,2013-07-14 17:07:00,
2013-07-14 12:12:00,77.7,43.0,0.00,SSW,209,4.0,4.0,29,0.00,,,0.00,VWS V13.01,2013-07-14 17:12:00,
2013-07-14 12:17:00,78.3,43.4,0.00,SE,143,6.3,6.3,29,0.00,,,0.00,VWS V13.01,2013-07-14 17:17:00,
2013-07-14 12:22:00,78.3,43.4,0.00,SSW,202,6.3,6.3,29,0.00,,,0.00,VWS V13.01,2013-07-14 17:22:00,
2013-07-14 12:27:00,78.3,44.3,0.00,South,171,3.1,3.6,30,0.00,,,0.00,VWS V13.01,2013-07-14 17:27:00,
2013-07-14 12:32:00,78.3,42.5,0.00,SSW,195,6.3,6.3,28,0.00,,,0.00,VWS V13.01,2013-07-14 17:32:00,
2013-07-14 12:37:00,78.1,43.3,0.00,South,176,5.8,5.8,29,0.00,,,0.00,VWS V13.01,2013-07-14 17:37:00,
2013-07-14 12:42:00,79.2,45.1,0.00,SE,143,6.3,6.3,30,0.00,,,0.00,VWS V13.01,2013-07-14 17:42:00,
2013-07-14 12:47:00,79.0,42.2,0.00,SSE,164,8.1,8.1,27,0.00,,,0.00,VWS V13.01,2013-07-14 17:47:00,
2013-07-14 12:52:00,78.6,42.8,0.00,SSW,197,4.9,8.1,28,0.00,,,0.00,VWS V13.01,2013-07-14 17:52:00,
2013-07-14 12:57:00,79.0,41.2,0.00,South,184,3.6,3.6,26,0.00,,,0.00,VWS V13.01,2013-07-14 17:57:00,
2013-07-14 13:02:00,79.0,42.2,0.00,SSE,168,5.8,5.8,27,0.00,,,0.00,VWS V13.01,2013-07-14 18:02:00,
2013-07-14 13:07:00,79.3,43.4,0.00,South,169,5.8,5.8,28,0.00,,,0.00,VWS V13.01,2013-07-14 18:07:00,
2013-07-14 13:12:00,79.5,41.7,0.00,SSW,195,3.1,3.6,26,0.00,,,0.00,VWS V13.01,2013-07-14 18:12:00,
2013-07-14 13:17:00,79.5,42.6,0.00,SE,139,3.1,3.6,27,0.00,,,0.00,VWS V13.01,2013-07-14 18:17:00,
2013-07-14 13:22:00,80.2,41.3,0.00,SSE,164,2.7,3.1,25,0.00,,,0.00,VWS V13.01,2013-07-14 18:22:00,
2013-07-14 13:27:00,80.2,43.3,0.00,WNW,285,2.2,2.7,27,0.00,,,0.00,VWS V13.01,2013-07-14 18:27:00,
2013-07-14 13:32:00,80.4,40.4,0.00,SSE,166,4.0,4.0,24,0.00,,,0.00,VWS V13.01,2013-07-14 18:32:00,
2013-07-14 13:37:00,79.9,39.9,0.00,SSE,161,5.4,5.4,24,0.00,,,0.00,VWS V13.01,2013-07-14 18:37:00,
2013-07-14 13:42:00,79.9,41.0,0.00,WSW,246,0.0,6.3,25,0.00,,,0.00,VWS V13.01,2013-07-14 18:42:00,
2013-07-14 13:47:00,81.1,43.0,0.00,NE,48,0.0,0.0,26,0.00,,,0.00,VWS V13.01,2013-07-14 18:47:00,
2013-07-14 13:52:00,82.2,41.9,0.00,South,187,3.1,3.1,24,0.00,,,0.00,VWS V13.01,2013-07-14 18:52:00,
2013-07-14 13:57:00,82.4,39.8,0.00,South,183,4.0,4.0,22,0.00,,,0.00,VWS V13.01,2013-07-14 18:57:00,
2013-07-14 14:02:00,81.5,39.0,0.00,South,188,3.6,4.0,22,0.00,,,0.00,VWS V13.01,2013-07-14 19:02:00,
2013-07-14 14:07:00,81.1,41.0,0.00,South,182,5.8,5.8,24,0.00,,,0.00,VWS V13.01,2013-07-14 19:07:00,
2013-07-14 14:12:00,81.3,41.1,0.00,South,176,6.3,6.3,24,0.00,,,0.00,VWS V13.01,2013-07-14 19:12:00,
2013-07-14 14:17:00,81.7,40.3,0.00,South,178,0.0,0.0,23,0.00,,,0.00,VWS V13.01,2013-07-14 19:17:00,
2013-07-14 14:22:00,81.7,39.2,0.00,South,173,4.9,5.4,22,0.00,,,0.00,VWS V13.01,2013-07-14 19:22:00,
2013-07-14 14:27:00,81.0,41.9,0.00,South,172,4.0,6.3,25,0.00,,,0.00,VWS V13.01,2013-07-14 19:27:00,
2013-07-14 14:32:00,80.6,40.5,0.00,South,186,3.1,4.0,24,0.00,,,0.00,VWS V13.01,2013-07-14 19:32:00,
2013-07-14 14:37:00,81.1,41.0,0.00,ESE,104,0.0,2.7,24,0.00,,,0.00,VWS V13.01,2013-07-14 19:37:00,
2013-07-14 14:42:00,81.7,40.3,0.00,SSW,195,0.0,0.0,23,0.00,,,0.00,VWS V13.01,2013-07-14 19:42:00,
2013-07-14 14:47:00,81.3,40.0,0.00,SSW,195,4.0,7.6,23,0.00,,,0.00,VWS V13.01,2013-07-14 19:47:00,
2013-07-14 14:52:00,80.8,39.6,0.00,South,186,4.0,7.6,23,0.00,,,0.00,VWS V13.01,2013-07-14 19:52:00,
2013-07-14 14:57:00,80.6,39.4,0.00,South,170,4.0,4.0,23,0.00,,,0.00,VWS V13.01,2013-07-14 19:57:00,
2013-07-14 15:02:00,80.4,41.4,0.00,SE,142,5.4,5.8,25,0.00,,,0.00,VWS V13.01,2013-07-14 20:02:00,
2013-07-14 15:07:00,80.2,41.3,0.00,SSE,154,3.1,5.4,25,0.00,,,0.00,VWS V13.01,2013-07-14 20:07:00,
2013-07-14 15:12:00,80.1,41.1,0.00,SSE,155,8.1,8.3,25,0.00,,,0.00,VWS V13.01,2013-07-14 20:12:00,
2013-07-14 15:17:00,80.2,42.3,0.00,SSE,162,5.4,5.4,26,0.00,,,0.00,VWS V13.01,2013-07-14 20:17:00,
2013-07-14 15:22:00,80.2,40.2,0.00,SSE,155,6.3,8.3,24,0.00,,,0.00,VWS V13.01,2013-07-14 20:22:00,
2013-07-14 15:27:00,80.1,41.1,0.00,SSE,162,7.6,8.1,25,0.00,,,0.00,VWS V13.01,2013-07-14 20:27:00,
2013-07-14 15:32:00,80.2,43.3,0.00,SE,134,10.1,10.1,27,0.00,,,0.00,VWS V13.01,2013-07-14 20:32:00,
2013-07-14 15:37:00,80.2,42.3,0.00,South,170,6.3,8.3,26,0.00,,,0.00,VWS V13.01,2013-07-14 20:37:00,
2013-07-14 15:42:00,80.2,41.3,0.00,SSE,166,2.7,7.6,25,0.00,,,0.00,VWS V13.01,2013-07-14 20:42:00,
2013-07-14 15:47:00,80.2,41.3,0.00,SSE,164,5.8,5.8,25,0.00,,,0.00,VWS V13.01,2013-07-14 20:47:00,
2013-07-14 15:52:00,80.4,42.4,0.00,South,182,5.4,5.4,26,0.00,,,0.00,VWS V13.01,2013-07-14 20:52:00,
2013-07-14 15:57:00,80.6,41.6,0.00,South,183,4.9,6.3,25,0.00,,,0.00,VWS V13.01,2013-07-14 20:57:00,
2013-07-14 16:02:00,80.6,40.5,0.00,SSW,202,6.3,6.3,24,0.00,,,0.00,VWS V13.01,2013-07-14 21:02:00,
2013-07-14 16:07:00,80.8,41.7,0.00,SSE,160,7.6,8.1,25,0.00,,,0.00,VWS V13.01,2013-07-14 21:07:00,
2013-07-14 16:12:00,80.8,41.7,0.00,South,172,3.1,5.8,25,0.00,,,0.00,VWS V13.01,2013-07-14 21:12:00,
2013-07-14 16:17:00,80.8,40.7,0.00,SSE,166,5.8,5.8,24,0.00,,,0.00,VWS V13.01,2013-07-14 21:17:00,
2013-07-14 16:22:00,80.8,40.7,0.00,South,172,13.2,13.2,24,0.00,,,0.00,VWS V13.01,2013-07-14 21:22:00,
2013-07-14 16:27:00,80.8,42.7,0.00,South,169,8.3,11.0,26,0.00,,,0.00,VWS V13.01,2013-07-14 21:27:00,
2013-07-14 16:32:00,80.6,42.6,0.00,SSE,166,9.6,9.6,26,0.00,,,0.00,VWS V13.01,2013-07-14 21:32:00,
2013-07-14 16:37:00,80.6,40.5,0.00,South,185,8.7,10.1,24,0.00,,,0.00,VWS V13.01,2013-07-14 21:37:00,
2013-07-14 16:42:00,80.8,42.7,0.00,SSW,202,4.0,5.8,26,0.00,,,0.00,VWS V13.01,2013-07-14 21:42:00,
2013-07-14 16:47:00,80.8,41.7,0.00,South,188,5.8,7.6,25,0.00,,,0.00,VWS V13.01,2013-07-14 21:47:00,
2013-07-14 16:52:00,80.6,41.6,0.00,South,183,4.9,5.4,25,0.00,,,0.00,VWS V13.01,2013-07-14 21:52:00,
2013-07-14 16:57:00,80.6,40.5,0.00,SSW,192,4.9,4.9,24,0.00,,,0.00,VWS V13.01,2013-07-14 21:57:00,
2013-07-14 17:02:00,80.8,43.7,0.00,South,175,3.6,5.4,27,0.00,,,0.00,VWS V13.01,2013-07-14 22:02:00,
2013-07-14 17:07:00,80.8,41.7,0.00,SSE,160,6.3,8.3,25,0.00,,,0.00,VWS V13.01,2013-07-14 22:07:00,
2013-07-14 17:12:00,80.8,42.7,0.00,South,172,6.3,10.1,26,0.00,,,0.00,VWS V13.01,2013-07-14 22:12:00,
2013-07-14 17:17:00,80.6,41.6,0.00,South,189,3.6,6.3,25,0.00,,,0.00,VWS V13.01,2013-07-14 22:17:00,
2013-07-14 17:22:00,80.4,41.4,0.00,SSE,161,8.3,8.3,25,0.00,,,0.00,VWS V13.01,2013-07-14 22:22:00,
2013-07-14 17:27:00,80.4,42.4,0.00,SSE,168,4.0,4.9,26,0.00,,,0.00,VWS V13.01,2013-07-14 22:27:00,
2013-07-14 17:32:00,80.4,44.4,0.00,SSW,206,4.0,4.9,28,0.00,,,0.00,VWS V13.01,2013-07-14 22:32:00,
2013-07-14 17:37:00,80.4,43.4,0.00,South,185,4.9,8.1,27,0.00,,,0.00,VWS V13.01,2013-07-14 22:37:00,
2013-07-14 17:42:00,80.6,41.6,0.00,South,169,2.2,4.0,25,0.00,,,0.00,VWS V13.01,2013-07-14 22:42:00,
2013-07-14 17:47:00,80.6,42.6,0.00,South,173,4.9,5.8,26,0.00,,,0.00,VWS V13.01,2013-07-14 22:47:00,
2013-07-14 17:52:00,80.6,42.6,0.00,SSW,193,4.0,4.9,26,0.00,,,0.00,VWS V13.01,2013-07-14 22:52:00,
2013-07-14 17:57:00,80.6,42.6,0.00,South,177,4.0,5.4,26,0.00,,,0.00,VWS V13.01,2013-07-14 22:57:00,
2013-07-14 18:02:00,80.6,43.6,0.00,SSW,193,2.7,2.7,27,0.00,,,0.00,VWS V13.01,2013-07-14 23:02:00,
2013-07-14 18:07:00,80.4,44.4,0.00,South,180,4.0,5.4,28,0.00,,,0.00,VWS V13.01,2013-07-14 23:07:00,
2013-07-14 18:12:00,80.4,44.4,0.00,South,180,5.8,5.8,28,0.00,,,0.00,VWS V13.01,2013-07-14 23:12:00,
2013-07-14 18:17:00,80.4,44.4,0.00,South,172,5.4,5.4,28,0.00,,,0.00,VWS V13.01,2013-07-14 23:17:00,
2013-07-14 18:22:00,80.2,46.0,0.00,SSE,163,5.4,5.4,30,0.00,,,0.00,VWS V13.01,2013-07-14 23:22:00,
2013-07-14 18:27:00,79.9,45.7,0.00,SSE,166,4.0,4.0,30,0.00,,,0.00,VWS V13.01,2013-07-14 23:27:00,
2013-07-14 18:32:00,79.7,45.6,0.00,SSE,167,4.0,4.0,30,0.00,,,0.00,VWS V13.01,2013-07-14 23:32:00,
2013-07-14 18:37:00,79.7,45.6,0.00,South,180,3.1,4.0,30,0.00,,,0.00,VWS V13.01,2013-07-14 23:37:00,
2013-07-14 18:42:00,79.5,45.4,0.00,SSE,163,2.2,2.2,30,0.00,,,0.00,VWS V13.01,2013-07-14 23:42:00,
2013-07-14 18:47:00,79.5,45.4,0.00,SSE,163,3.6,3.6,30,0.00,,,0.00,VWS V13.01,2013-07-14 23:47:00,
2013-07-14 18:52:00,79.5,45.4,0.00,SSE,163,0.0,0.0,30,0.00,,,0.00,VWS V13.01,2013-07-14 23:52:00,
2013-07-14 18:57:00,79.3,45.2,0.00,SSE,163,0.0,0.0,30,0.00,,,0.00,VWS V13.01,2013-07-14 23:57:00,
2013-07-14 19:02:00,79.3,45.2,0.00,SSE,163,0.0,0.0,30,0.00,,,0.00,VWS V13.01,2013-07-15 00:02:00,
2013-07-14 19:07:00,79.3,46.1,0.00,SSE,163,0.0,0.0,31,0.00,,,0.00,VWS V13.01,2013-07-15 00:07:00,
2013-07-14 19:12:00,79.2,46.0,0.00,SSE,163,0.0,0.0,31,0.00,,,0.00,VWS V13.01,2013-07-15 00:12:00,
2013-07-14 19:17:00,78.6,46.3,0.00,SSE,163,0.0,0.0,32,0.00,,,0.00,VWS V13.01,2013-07-15 00:17:00,
2013-07-14 19:22:00,78.3,46.8,0.00,SSE,163,0.0,0.0,33,0.00,,,0.00,VWS V13.01,2013-07-15 00:22:00,
2013-07-14 19:27:00,77.7,46.3,0.00,SSE,163,0.0,0.0,33,0.00,,,0.00,VWS V13.01,2013-07-15 00:27:00,
2013-07-14 19:32:00,77.4,46.8,0.00,SSE,163,0.0,0.0,34,0.00,,,0.00,VWS V13.01,2013-07-15 00:32:00,
2013-07-14 19:37:00,77.0,47.3,0.00,SSE,163,0.0,0.0,35,0.00,,,0.00,VWS V13.01,2013-07-15 00:37:00,
2013-07-14 19:42:00,77.2,47.4,0.00,SSE,163,0.0,0.0,35,0.00,,,0.00,VWS V13.01,2013-07-15 00:42:00,
2013-07-14 19:47:00,77.0,47.3,0.00,SSE,163,0.0,0.0,35,0.00,,,0.00,VWS V13.01,2013-07-15 00:47:00,
2013-07-14 19:52:00,77.0,48.0,0.00,SSE,163,0.0,0.0,36,0.00,,,0.00,VWS V13.01,2013-07-15 00:52:00,
2013-07-14 19:57:00,77.0,49.5,0.00,SSE,163,0.0,0.0,38,0.00,,,0.00,VWS V13.01,2013-07-15 00:57:00,
2013-07-14 20:02:00,76.8,51.4,0.00,SSE,163,0.0,0.0,41,0.00,,,0.00,VWS V13.01,2013-07-15 01:02:00,
2013-07-14 20:07:00,76.8,51.4,0.00,SSE,163,0.0,0.0,41,0.00,,,0.00,VWS V13.01,2013-07-15 01:07:00,
2013-07-14 20:12:00,76.5,51.0,0.00,SSE,163,0.0,0.0,41,0.00,,,0.00,VWS V13.01,2013-07-15 01:12:00,
2013-07-14 20:17:00,76.3,50.9,0.00,SSE,163,0.0,0.0,41,0.00,,,0.00,VWS V13.01,2013-07-15 01:17:00,
2013-07-14 20:22:00,75.9,50.5,0.00,SSE,163,0.0,0.0,41,0.00,,,0.00,VWS V13.01,2013-07-15 01:22:00,
2013-07-14 20:27:00,75.2,49.9,0.00,SSE,163,0.0,0.0,41,0.00,,,0.00,VWS V13.01,2013-07-15 01:27:00,
2013-07-14 20:32:00,74.5,49.9,0.00,SSE,163,0.0,0.0,42,0.00,,,0.00,VWS V13.01,2013-07-15 01:32:00,
2013-07-14 20:37:00,73.6,50.3,0.00,SSE,163,0.0,0.0,44,0.00,,,0.00,VWS V13.01,2013-07-15 01:37:00,
2013-07-14 20:42:00,73.0,51.1,0.00,SSE,163,0.0,0.0,46,0.00,,,0.00,VWS V13.01,2013-07-15 01:42:00,
2013-07-14 20:47:00,72.5,51.2,0.00,SSE,163,0.0,0.0,47,0.00,,,0.00,VWS V13.01,2013-07-15 01:47:00,
2013-07-14 20:52:00,72.0,51.2,0.00,SSE,163,0.0,0.0,48,0.00,,,0.00,VWS V13.01,2013-07-15 01:52:00,
2013-07-14 20:57:00,71.8,51.1,0.00,SSE,163,0.0,0.0,48,0.00,,,0.00,VWS V13.01,2013-07-15 01:57:00,
2013-07-14 21:02:00,71.6,51.5,0.00,SSE,163,0.0,0.0,49,0.00,,,0.00,VWS V13.01,2013-07-15 02:02:00,
2013-07-14 21:07:00,71.4,51.8,0.00,SSE,163,0.0,0.0,50,0.00,,,0.00,VWS V13.01,2013-07-15 02:07:00,
2013-07-14 21:12:00,71.1,52.0,0.00,SSE,163,0.0,0.0,51,0.00,,,0.00,VWS V13.01,2013-07-15 02:12:00,
2013-07-14 21:17:00,70.7,52.8,0.00,SSE,163,0.0,0.0,53,0.00,,,0.00,VWS V13.01,2013-07-15 02:17:00,
2013-07-14 21:22:00,70.5,53.1,0.00,SSE,163,0.0,0.0,54,0.00,,,0.00,VWS V13.01,2013-07-15 02:22:00,
2013-07-14 21:27:00,70.3,52.9,0.00,SSE,163,0.0,0.0,54,0.00,,,0.00,VWS V13.01,2013-07-15 02:27:00,
2013-07-14 21:32:00,70.2,53.3,0.00,SSE,163,0.0,0.0,55,0.00,,,0.00,VWS V13.01,2013-07-15 02:32:00,
2013-07-14 21:37:00,70.0,53.1,0.00,SSE,163,0.0,0.0,55,0.00,,,0.00,VWS V13.01,2013-07-15 02:37:00,
2013-07-14 21:43:00,69.8,53.4,0.00,SSE,163,0.0,0.0,56,0.00,,,0.00,VWS V13.01,2013-07-15 02:43:00,
2013-07-14 21:48:00,69.6,54.2,0.00,SSE,163,0.0,0.0,58,0.00,,,0.00,VWS V13.01,2013-07-15 02:48:00,
2013-07-14 21:53:00,69.4,54.5,0.00,SSE,163,0.0,0.0,59,0.00,,,0.00,VWS V13.01,2013-07-15 02:53:00,
2013-07-14 21:58:00,69.3,54.8,0.00,SSE,163,0.0,0.0,60,0.00,,,0.00,VWS V13.01,2013-07-15 02:58:00,
2013-07-14 22:03:00,69.1,55.1,0.00,SSE,163,0.0,0.0,61,0.00,,,0.00,VWS V13.01,2013-07-15 03:03:00,
2013-07-14 22:08:00,68.9,55.8,0.00,SSE,163,0.0,0.0,63,0.00,,,0.00,VWS V13.01,2013-07-15 03:08:00,
2013-07-14 22:13:00,68.7,55.6,0.00,SSE,163,0.0,0.0,63,0.00,,,0.00,VWS V13.01,2013-07-15 03:13:00,
2013-07-14 22:18:00,68.7,56.1,0.00,SSE,163,0.0,0.0,64,0.00,,,0.00,VWS V13.01,2013-07-15 03:18:00,
2013-07-14 22:23:00,68.5,56.3,0.00,SSE,163,0.0,0.0,65,0.00,,,0.00,VWS V13.01,2013-07-15 03:23:00,
2013-07-14 22:28:00,68.4,56.2,0.00,SSE,163,0.0,0.0,65,0.00,,,0.00,VWS V13.01,2013-07-15 03:28:00,
2013-07-14 22:33:00,68.4,56.6,0.00,SSE,163,0.0,0.0,66,0.00,,,0.00,VWS V13.01,2013-07-15 03:33:00,
2013-07-14 22:38:00,68.2,56.8,0.00,SSE,163,0.0,0.0,67,0.00,,,0.00,VWS V13.01,2013-07-15 03:38:00,
2013-07-14 22:43:00,68.2,56.8,0.00,SSE,163,0.0,0.0,67,0.00,,,0.00,VWS V13.01,2013-07-15 03:43:00,
2013-07-14 22:48:00,68.2,56.8,0.00,SSE,163,0.0,0.0,67,0.00,,,0.00,VWS V13.01,2013-07-15 03:48:00,
2013-07-14 22:53:00,68.2,57.2,0.00,SSE,163,0.0,0.0,68,0.00,,,0.00,VWS V13.01,2013-07-15 03:53:00,
2013-07-14 22:58:00,68.0,57.1,0.00,SSE,163,0.0,0.0,68,0.00,,,0.00,VWS V13.01,2013-07-15 03:58:00,
2013-07-14 23:01:00,67.8,57.3,0.00,SSE,163,0.0,0.0,69,0.00,,,0.00,VWS V13.01,2013-07-15 04:01:00,
2013-07-14 23:06:00,67.6,57.1,0.00,SSE,163,0.0,0.0,69,0.00,,,0.00,VWS V13.01,2013-07-15 04:06:00,
2013-07-14 23:11:00,67.6,57.5,0.00,SSE,163,0.0,0.0,70,0.00,,,0.00,VWS V13.01,2013-07-15 04:11:00,
2013-07-14 23:16:00,67.5,57.3,0.00,SSE,163,0.0,0.0,70,0.00,,,0.00,VWS V13.01,2013-07-15 04:16:00,
2013-07-14 23:21:00,67.3,57.2,0.00,SSE,163,0.0,0.0,70,0.00,,,0.00,VWS V13.01,2013-07-15 04:21:00,
2013-07-14 23:26:00,67.1,57.0,0.00,SSE,163,0.0,0.0,70,0.00,,,0.00,VWS V13.01,2013-07-15 04:26:00,
2013-07-14 23:31:00,66.9,56.8,0.00,SSE,163,0.0,0.0,70,0.00,,,0.00,VWS V13.01,2013-07-15 04:31:00,
2013-07-14 23:36:00,66.9,57.2,0.00,SSE,163,0.0,0.0,71,0.00,,,0.00,VWS V13.01,2013-07-15 04:36:00,
2013-07-14 23:41:00,66.7,57.0,0.00,SSE,163,0.0,0.0,71,0.00,,,0.00,VWS V13.01,2013-07-15 04:41:00,
2013-07-14 23:46:00,66.6,56.9,0.00,SSE,163,0.0,0.0,71,0.00,,,0.00,VWS V13.01,2013-07-15 04:46:00,
2013-07-14 23:51:00,66.4,56.7,0.00,SSE,163,0.0,0.0,71,0.00,,,0.00,VWS V13.01,2013-07-15 04:51:00,
2013-07-14 23:56:00,66.4,57.1,0.00,SSE,163,0.0,0.0,72,0.00,,,0.00,VWS V13.01,2013-07-15 04:56:00,